sat.trackr.live / text

‹ back to catalog

STARLINK-37140

NORAD 68311 · 2026-057T

PAYLOAD ACTIVE UNKNOWN

§ Identity

Operator
Country
US
Launch date
2026-03-20
Launch site
AFWTR
Launch vehicle
Mass (kg)
RCS (m²)

Purposes: comms

External: N2YO · Heavens-Above · Gunter

§ Orbital elements

Epoch: 2026-05-24T21:24:06.810336Z

Period
91.42 min
Inclination
97.2856°
Eccentricity
0.0001964
Mean motion
15.75229471 rev/d
Perigee alt
342.7 km
Apogee alt
345.3 km
Semi-major
6,722.1 km
B*
1.4870e-3
RAAN
271.1650°
Arg perigee
64.8354°
Mean anomaly
295.3115°
Rev number
1,028

§ Raw data

STARLINK-371401 68311U 26057T   26144.89174549  .00228090  00000+0  14870-2 0  99952 68311  97.2856 271.1650 0001964  64.8354 295.3115 15.75229471 10280

JSON: /api/v1/satellites/68311 · /tle

For live sub-satellite position, see the globe view (requires WebGL).

§ Visibility from observer

Set your observer location to see the next 7 days of passes ≥ 10°. The values pass through the URL so the page stays shareable.

No JS? Fill the form by hand. The geolocation button needs JavaScript.